TAP1931 LPPR-LPPT

Flight info

Callsign TAP1931
Flight time N/A
Altitude 23000
Route MANIK DCT ABRIL DCT XAMAX
Aircraft A320/M-SDE3FGHIRWY/LB1

Departure

Time N/A
Airport Francisco de Sá Carneiro Airport (LPPR)

Arrival

Time 2026-05-04 19:42
Airport Lisbon Humberto Delgado Airport (LPPT)
Time Latitude Longitude Altitude Speed Heading
2026-05-04 19:36 38.54428 -9.26487 4129 ft 217 kts 20°
2026-05-04 19:36 38.55795 -9.25702 4129 ft 217 kts 20°
2026-05-04 19:37 38.57161 -9.24878 4130 ft 217 kts 23°
2026-05-04 19:37 38.58514 -9.24073 4110 ft 208 kts 20°
2026-05-04 19:37 38.59825 -9.23356 3909 ft 204 kts 19°
2026-05-04 19:37 38.61137 -9.22657 3645 ft 202 kts 18°
2026-05-04 19:38 38.62403 -9.21982 3420 ft 191 kts 19°
2026-05-04 19:38 38.63594 -9.21348 3151 ft 181 kts 19°
2026-05-04 19:38 38.64736 -9.20740 2907 ft 176 kts 18°
2026-05-04 19:38 38.65856 -9.20145 2677 ft 174 kts 17°
2026-05-04 19:39 38.66973 -9.19550 2442 ft 173 kts 19°
2026-05-04 19:39 38.68079 -9.18961 2193 ft 169 kts 19°
2026-05-04 19:39 38.69119 -9.18401 1953 ft 157 kts 17°
2026-05-04 19:39 38.70074 -9.17892 1783 ft 141 kts 17°
2026-05-04 19:40 38.70958 -9.17422 1572 ft 135 kts 17°
2026-05-04 19:40 38.71820 -9.16962 1406 ft 133 kts 17°
2026-05-04 19:40 38.72669 -9.16511 1202 ft 131 kts 16°
2026-05-04 19:40 38.73509 -9.16065 1036 ft 134 kts 15°
2026-05-04 19:41 38.74364 -9.15609 867 ft 132 kts 16°
2026-05-04 19:41 38.75214 -9.15156 690 ft 134 kts 19°
2026-05-04 19:41 38.76082 -9.14692 525 ft 137 kts 21°
2026-05-04 19:41 38.76962 -9.14221 359 ft 134 kts 19°
2026-05-04 19:42 38.77714 -9.13817 351 ft 95 kts 23°
2026-05-04 19:42 38.78173 -9.13569 348 ft 52 kts 23°
2026-05-04 19:42 38.78367 -9.13360 350 ft 19 kts 60°
2026-05-04 19:42 38.78345 -9.13293 351 ft 2 kts 187°
2026-05-04 19:43 38.78323 -9.13288 349 ft 9 kts 172°
2026-05-04 19:43 38.78238 -9.13305 353 ft 13 kts 200°
2026-05-04 19:43 38.78160 -9.13345 357 ft 11 kts 202°
2026-05-04 19:43 38.78092 -9.13381 352 ft 11 kts 202°
2026-05-04 19:44 38.77999 -9.13409 347 ft 18 kts 173°
2026-05-04 19:44 38.77870 -9.13375 347 ft 20 kts 167°
2026-05-04 19:44 38.77731 -9.13337 350 ft 21 kts 168°
2026-05-04 19:44 38.77582 -9.13318 353 ft 22 kts 175°
2026-05-04 19:45 38.77427 -9.13279 347 ft 23 kts 169°
2026-05-04 19:45 38.77270 -9.13244 350 ft 12 kts 168°
2026-05-04 19:45 38.77244 -9.13209 354 ft 7 kts 97°
2026-05-04 19:45 38.77252 -9.13166 352 ft 0 kts 76°